Latest Weather Observations for Melbourne Airport

IDV60801

Issued at 8:35 am EST Saturday 2 August 2014 (issued every 30 minutes, with the page automatically refreshed every 10 minutes)

About weather observations | Map of weather stations | Latest weather observations for VIC | Other Formats
Station Details ID: 086282 Name: MELBOURNE AIRPORT Lat: -37.67 Lon: 144.83 Height: 113.4 m
Data from the previous 72 hours. | See also: Recent months at Melbourne Airport
Date/Time
EST
Temp
°C
App
Temp
°C
Dew
Point
Rel
Hum
%
Delta-T
°C
Wind Press
QNH
hPa
Press
MSL
hPa
Rain
since 9 am
mm
Dir
 
Spd
km/h
Gust
km/h
Spd
kts
Gust
kts
02/08:30am 5.1 0.2 1.8 79 1.3 W 17 20 9 11 1028.8 - 6.0
02/08:00am 3.9 -0.4 1.0 81 1.1 WNW 13 19 7 10 1028.5 1028.7 6.0
02/07:30am 3.7 0.1 0.8 81 1.1 WNW 9 11 5 6 1028.3 - 6.0
02/07:00am 5.0 -0.1 0.6 73 1.7 WNW 17 22 9 12 1027.6 1027.7 6.0
02/06:30am 3.8 -1.6 1.2 83 1.0 W 19 24 10 13 1026.8 - 6.0
02/06:00am 3.8 -2.6 0.9 81 1.1 W 24 30 13 16 1026.2 1026.4 6.0
02/05:30am 3.3 -2.3 1.2 86 0.8 WNW 20 26 11 14 1025.8 - 6.0
02/05:00am 2.8 -3.2 1.0 88 0.7 W 22 26 12 14 1025.4 1025.6 6.0
02/04:30am 4.0 -3.4 1.7 85 0.9 W 30 37 16 20 1025.2 - 6.0
02/04:00am 3.5 -2.9 1.2 85 0.9 W 24 30 13 16 1024.9 1025.1 6.0
02/03:30am 3.1 -2.5 1.0 86 0.8 W 20 28 11 15 1024.6 - 6.0
02/03:00am 3.4 -2.2 1.1 85 0.9 W 20 26 11 14 1024.4 1024.6 6.0
02/02:30am 3.8 -2.6 1.2 83 1.0 W 24 32 13 17 1024.2 - 6.0
02/02:00am 4.0 -2.4 1.2 82 1.1 W 24 30 13 16 1024.1 1024.3 5.8
02/01:30am 4.5 -2.5 1.7 82 1.1 WSW 28 35 15 19 1023.6 - 5.8
02/01:00am 4.0 -1.4 1.4 83 1.0 W 19 24 10 13 1023.3 1023.5 5.8
02/12:30am 4.3 0.9 2.0 85 0.9 SW 9 11 5 6 1023.3 - 5.8
02/12:00am 4.7 0.3 2.5 86 0.9 WSW 15 24 8 13 1023.0 1023.2 5.8
 
Date/Time
EST
Temp
°C
App
Temp
°C
Dew
Point
Rel
Hum
%
Delta-T
°C
Wind Press
QNH
hPa
Press
MSL
hPa
Rain
since 9 am
mm
Dir
 
Spd
km/h
Gust
km/h
Spd
kts
Gust
kts
01/11:44pm 5.1 -1.8 2.4 83 1.1 SSW 28 50 15 27 1023.2 - 5.4
01/11:30pm 4.8 -0.7 1.8 81 1.2 W 20 28 11 15 1022.4 - 5.2
01/11:00pm 4.7 -0.2 1.9 82 1.1 W 17 26 9 14 1021.8 1022.0 5.2
01/10:30pm 4.2 -1.7 1.9 85 0.9 W 22 30 12 16 1021.4 - 5.2
01/10:00pm 4.1 -1.1 2.6 90 0.6 WNW 19 26 10 14 1021.0 1021.1 5.2
01/09:54pm 3.8 -1.0 2.6 92 0.5 WNW 17 22 9 12 1020.8 - 5.2
01/09:30pm 5.1 -1.7 3.2 87 0.8 WSW 28 39 15 21 1021.0 - 4.2
01/09:00pm 5.1 -1.0 2.9 86 0.9 W 24 35 13 19 1019.9 1020.0 3.6
01/08:30pm 4.9 -0.2 3.2 89 0.7 WSW 19 37 10 20 1019.4 - 3.6
01/08:16pm 5.1 -0.2 3.2 87 0.8 WSW 20 32 11 17 1019.4 - 3.4
01/08:00pm 4.9 -1.1 3.5 91 0.6 WSW 24 33 13 18 1018.7 1018.8 3.2
01/07:52pm 4.9 -1.5 3.2 89 0.7 WSW 26 33 14 18 1018.4 - 3.2
01/07:42pm 5.0 -2.5 3.3 89 0.7 WSW 32 43 17 23 1018.6 - 2.8
01/07:30pm 5.4 -2.3 3.2 86 0.9 W 33 44 18 24 1017.8 - 2.0
01/07:00pm 5.4 -2.2 3.0 84 1.0 WSW 32 41 17 22 1016.9 1017.1 1.8
01/06:34pm 5.7 -2.2 2.5 80 1.3 WSW 33 52 18 28 1016.3 - 1.2
01/06:30pm 5.5 -2.3 2.6 81 1.2 WSW 33 46 18 25 1016.3 - 1.2
01/06:00pm 5.8 0.8 3.4 84 1.0 SW 19 30 10 16 1015.5 1015.7 1.2
01/05:30pm 5.9 -2.2 3.0 82 1.2 WSW 35 48 19 26 1014.0 - 1.0
01/05:20pm 6.8 -0.8 3.0 77 1.6 SW 32 52 17 28 1013.9 - 0.8
01/05:00pm 7.3 -2.6 1.4 66 2.4 SW 43 54 23 29 1013.1 1013.2 0.6
01/04:50pm 7.5 -0.4 2.2 69 2.2 W 33 52 18 28 1012.5 - 0.6
01/04:30pm 7.7 -0.6 2.2 68 2.3 W 35 48 19 26 1012.0 - 0.6
01/04:00pm 7.5 -0.8 2.2 69 2.2 WSW 35 50 19 27 1011.5 1011.6 0.6
01/03:37pm 7.3 -0.6 2.5 71 2.0 W 33 52 18 28 1010.8 - 0.6
01/03:30pm 7.2 -1.5 1.9 69 2.2 W 37 52 20 28 1010.8 - 0.6
01/03:00pm 8.5 0.5 1.5 61 2.9 W 33 44 18 24 1010.0 1010.1 0.6
01/02:30pm 8.7 -0.1 1.5 60 3.0 W 37 48 20 26 1009.1 - 0.6
01/02:10pm 7.9 -0.5 1.3 63 2.7 W 35 56 19 30 1008.7 - 0.6
01/02:00pm 8.2 0.4 1.4 62 2.8 W 32 43 17 23 1008.5 1008.7 0.6
01/01:30pm 8.4 0.1 2.2 65 2.6 W 35 48 19 26 1008.1 - 0.6
01/01:00pm 7.8 -0.2 1.8 66 2.5 W 33 48 18 26 1007.6 1007.8 0.6
01/12:35pm 7.2 -0.5 2.4 71 2.0 W 32 50 17 27 1007.0 - 0.6
01/12:30pm 7.2 -1.0 2.7 73 1.9 W 35 50 19 27 1007.0 - 0.6
01/12:00pm 5.6 -4.1 3.0 83 1.1 W 43 57 23 31 1006.8 1006.9 0.6
01/11:47am 6.5 -3.7 3.2 79 1.4 W 46 63 25 34 1006.6 - 0.2
01/11:30am 8.5 -1.5 0.9 59 3.1 WNW 43 59 23 32 1006.0 - 0.0
01/11:00am 9.3 1.1 0.2 53 3.7 WNW 33 52 18 28 1005.7 1005.8 0.0
01/10:56am 9.9 1.9 0.4 51 3.9 WNW 32 52 17 28 1005.6 - 0.0
01/10:55am 9.7 2.0 0.1 51 3.9 WNW 30 46 16 25 1005.6 - 0.0
01/10:30am 8.6 2.9 -0.5 53 3.6 NNW 19 28 10 15 1005.2 - 0.0
01/10:00am 8.0 1.6 0.9 61 2.9 NNW 24 43 13 23 1004.4 1004.6 0.0
01/09:30am 7.2 0.8 0.7 63 2.6 NNW 24 30 13 16 1004.2 - 0.0
01/09:00am 6.9 0.8 0.4 63 2.6 NNW 22 35 12 19 1004.2 1004.4 6.0
01/08:30am 6.5 0.7 0.1 63 2.5 N 20 32 11 17 1003.7 - 6.0
01/08:00am 5.6 -1.7 0.2 68 2.1 NW 28 39 15 21 1003.6 1003.7 6.0
01/07:30am 4.5 -1.1 0.9 77 1.4 NNW 20 30 11 16 1003.4 - 6.0
01/07:00am 4.8 -3.4 0.1 71 1.8 N 33 43 18 23 1001.8 1001.9 6.0
01/06:30am 4.9 -4.8 0.8 75 1.6 N 41 52 22 28 1001.4 - 6.0
01/06:00am 5.5 -3.1 0.4 70 2.0 N 35 50 19 27 1001.5 1001.6 6.0
01/05:30am 5.3 -2.7 0.4 70 1.9 N 32 43 17 23 1002.1 - 6.0
01/05:00am 4.7 -1.7 0.9 76 1.5 N 24 30 13 16 1002.2 1002.3 6.0
01/04:30am 4.8 -0.7 0.4 73 1.7 N 19 26 10 14 1002.0 - 6.0
01/04:00am 4.4 -0.1 0.0 73 1.7 N 13 19 7 10 1002.4 1002.5 6.0
01/03:30am 4.7 0.7 0.6 75 1.6 ENE 11 19 6 10 1002.6 - 6.0
01/03:00am 5.9 0.7 0.3 67 2.2 N 17 28 9 15 1002.3 1002.4 6.0
01/02:30am 5.9 -1.0 0.3 67 2.2 NNW 26 35 14 19 1001.7 - 6.0
01/02:00am 6.1 -1.9 0.3 66 2.3 NW 32 46 17 25 1001.8 1001.9 6.0
01/01:30am 5.8 -1.0 0.5 69 2.1 NW 26 41 14 22 1002.3 - 6.0
01/01:00am 6.0 -0.1 0.1 66 2.3 NNW 22 30 12 16 1002.2 1002.3 6.0
01/12:30am 6.5 -0.4 0.2 64 2.5 NW 26 37 14 20 1002.4 - 6.0
01/12:00am 6.7 -1.0 0.1 63 2.6 NW 30 39 16 21 1002.4 1002.5 6.0
 
Date/Time
EST
Temp
°C
App
Temp
°C
Dew
Point
Rel
Hum
%
Delta-T
°C
Wind Press
QNH
hPa
Press
MSL
hPa
Rain
since 9 am
mm
Dir
 
Spd
km/h
Gust
km/h
Spd
kts
Gust
kts
31/11:30pm 7.1 -1.6 -0.3 59 2.9 WNW 35 50 19 27 1002.4 - 6.0
31/11:00pm 7.5 -1.2 -0.7 56 3.2 WNW 35 50 19 27 1002.4 1002.5 6.0
31/10:30pm 7.1 -1.0 0.0 60 2.8 WNW 32 41 17 22 1002.2 - 6.0
31/10:00pm 7.4 0.2 1.0 64 2.6 NW 28 35 15 19 1001.8 1001.9 6.0
31/09:30pm 6.9 -2.2 1.8 70 2.1 WNW 39 54 21 29 1002.2 - 6.0
31/09:00pm 7.6 -3.4 0.7 61 2.8 W 48 61 26 33 1002.1 1002.2 6.0
31/08:30pm 7.2 -2.3 1.6 67 2.3 WNW 41 59 22 32 1001.4 - 6.0
31/08:09pm 7.4 -1.4 1.6 66 2.4 W 37 56 20 30 1001.5 - 6.0
31/08:00pm 7.3 -0.5 2.0 69 2.2 WNW 32 43 17 23 1001.6 1001.7 6.0
31/07:30pm 6.6 0.3 3.6 81 1.3 WNW 26 33 14 18 1001.3 - 6.0
31/07:00pm 6.5 2.3 4.0 84 1.1 NNW 15 19 8 10 1001.3 1001.4 6.0
31/06:30pm 6.2 2.1 4.1 86 0.9 NW 15 22 8 12 1000.7 - 5.8
31/06:00pm 6.0 -0.2 4.4 89 0.7 WNW 26 35 14 19 1000.6 1000.7 5.8
31/05:30pm 6.5 -0.3 5.2 91 0.6 W 30 35 16 19 1000.2 - 4.8
31/05:00pm 7.1 0.1 6.0 93 0.5 W 32 43 17 23 999.5 999.7 3.8
31/04:48pm 7.5 1.8 6.6 94 0.4 W 26 35 14 19 999.4 - 2.8
31/04:30pm 7.8 1.0 6.7 93 0.5 W 32 41 17 22 999.1 - 1.8
31/04:18pm 7.9 1.0 6.4 90 0.7 WSW 32 39 17 21 998.8 - 1.6
31/04:00pm 7.7 0.8 6.6 93 0.5 W 32 43 17 23 998.6 998.8 1.4
31/03:30pm 8.3 -2.2 5.4 82 1.3 WSW 50 72 27 39 998.0 - 0.0
31/03:13pm 11.2 0.8 4.4 63 3.1 WSW 48 70 26 38 997.0 - 0.0
31/03:00pm 18.0 7.6 2.2 34 7.3 NW 46 72 25 39 995.1 995.2 0.0
31/02:33pm 18.1 7.3 2.0 34 7.3 NNW 48 87 26 47 994.5 - 0.0
31/02:30pm 17.9 7.1 2.0 34 7.2 NNW 48 69 26 37 994.5 - 0.0
31/02:00pm 17.4 6.2 2.1 36 7.0 NW 50 72 27 39 994.7 994.8 0.0
31/01:30pm 17.7 7.8 2.6 36 6.9 NNW 44 70 24 38 994.5 - 0.0
31/01:00pm 17.7 7.2 3.8 39 6.6 NNW 48 74 26 40 995.2 995.3 0.0
31/12:30pm 17.3 6.8 3.8 40 6.3 NNW 48 72 26 39 996.3 - 0.0
31/12:13pm 16.9 6.8 3.5 41 6.2 NNW 46 89 25 48 997.0 - 0.0
31/12:00pm 16.7 6.6 3.7 42 6.1 NNW 46 69 25 37 997.7 997.9 0.0
31/11:30am 17.1 7.6 3.8 41 6.2 NNW 43 65 23 35 997.9 - 0.0
31/11:00am 16.5 7.3 3.7 42 6.0 NNW 41 72 22 39 998.5 998.7 0.0
31/10:45am 16.7 7.5 3.4 41 6.2 NNW 41 69 22 37 999.3 - 0.0
31/10:30am 16.5 7.1 4.6 45 5.6 NNW 43 61 23 33 999.6 - 0.0
31/10:00am 15.6 4.3 5.2 50 5.0 N 54 74 29 40 999.3 999.5 0.0
31/09:30am 15.3 3.7 5.8 53 4.6 N 56 74 30 40 999.8 - 0.0
31/09:01am 14.7 5.5 6.5 58 4.0 N 44 67 24 36 1000.8 - 0.0
31/09:00am 14.7 5.5 6.5 58 4.0 N 44 59 24 32 1000.8 1000.9 0.0
31/08:30am 13.3 5.6 7.2 66 3.0 N 37 54 20 29 1001.4 - 0.0
31/08:00am 12.5 3.7 7.4 71 2.5 N 43 52 23 28 1001.8 1001.9 0.0
31/07:30am 12.3 3.0 7.4 72 2.4 NNE 46 59 25 32 1001.8 - 0.0
31/07:00am 12.5 2.4 7.2 70 2.6 NNE 50 69 27 37 1002.2 1002.3 0.0
31/06:51am 12.5 3.5 7.4 71 2.5 NNE 44 63 24 34 1002.5 - 0.0
31/06:30am 12.7 3.9 7.4 70 2.6 NNE 43 57 23 31 1003.1 - 0.0
31/06:00am 13.0 3.6 7.3 68 2.8 N 46 56 25 30 1003.4 1003.5 0.0
31/05:30am 13.2 3.7 6.8 65 3.1 N 46 57 25 31 1003.7 - 0.0
31/05:00am 13.3 4.4 7.0 65 3.1 N 43 57 23 31 1003.8 1003.9 0.0
31/04:30am 13.3 6.1 6.0 61 3.5 N 33 41 18 22 1004.4 - 0.0
31/04:00am 13.1 7.2 6.0 62 3.4 N 26 39 14 21 1004.9 1005.1 0.0
31/03:30am 13.0 8.2 5.6 61 3.5 N 20 28 11 15 1005.6 - 0.0
31/03:00am 13.6 9.3 5.1 56 4.0 N 17 30 9 16 1006.3 1006.5 0.0
31/02:30am 14.3 7.7 6.0 57 4.0 NNW 30 50 16 27 1006.9 - 0.0
31/02:07am 14.3 8.2 6.5 59 3.8 N 28 48 15 26 1007.3 - 0.0
31/02:00am 14.5 8.4 6.5 58 3.9 N 28 41 15 22 1007.4 1007.6 0.0
31/01:30am 14.2 9.8 7.6 64 3.3 NNW 20 28 11 15 1007.9 - 0.0
31/01:00am 14.0 7.6 8.5 69 2.8 NNW 32 50 17 27 1008.4 1008.6 0.0
31/12:30am 14.9 8.2 7.2 60 3.8 NNW 32 52 17 28 1008.3 - 0.0
31/12:03am 14.4 7.8 7.8 64 3.3 NNW 32 50 17 27 1008.8 - 0.0
31/12:00am 14.5 7.7 7.7 63 3.4 NNW 33 50 18 27 1009.0 1009.2 0.0
 
Date/Time
EST
Temp
°C
App
Temp
°C
Dew
Point
Rel
Hum
%
Delta-T
°C
Wind Press
QNH
hPa
Press
MSL
hPa
Rain
since 9 am
mm
Dir
 
Spd
km/h
Gust
km/h
Spd
kts
Gust
kts
30/11:30pm 14.3 7.7 8.6 68 2.9 NNW 33 54 18 29 1009.5 - 0.0
30/11:15pm 13.9 8.4 9.2 73 2.4 N 28 48 15 26 1009.5 - 0.0
30/11:00pm 14.6 8.8 8.0 64 3.3 N 28 33 15 18 1009.6 1009.7 0.0
30/10:30pm 14.8 9.3 7.4 61 3.7 N 26 41 14 22 1010.0 - 0.0
30/10:00pm 14.6 10.1 6.9 60 3.8 NNW 20 33 11 18 1010.4 1010.5 0.0
30/09:30pm 14.3 8.7 7.0 61 3.6 NNW 26 37 14 20 1010.5 - 0.0
30/09:00pm 14.8 9.2 7.1 60 3.8 NNW 26 39 14 21 1010.6 1010.7 0.0
30/08:30pm 15.2 9.9 6.9 57 4.1 NNW 24 35 13 19 1010.6 - 0.0
30/08:00pm 15.3 9.2 6.8 57 4.2 NW 28 37 15 20 1010.5 1010.6 0.0
30/07:36pm 15.1 9.0 6.5 56 4.2 NNW 28 46 15 25 1010.6 - 0.0
30/07:30pm 15.1 9.0 6.8 57 4.1 NNW 28 41 15 22 1010.6 - 0.0
30/07:15pm 15.1 8.7 6.8 57 4.1 NW 30 48 16 26 1010.5 - 0.0
30/07:00pm 15.2 8.8 7.1 58 4.0 NNW 30 46 16 25 1010.5 1010.6 0.0
30/06:30pm 15.5 9.2 7.5 59 4.0 NNW 30 50 16 27 1010.3 - 0.0
30/06:27pm 15.7 9.4 7.3 57 4.2 NNW 30 48 16 26 1010.2 - 0.0
30/06:00pm 15.6 10.6 7.9 60 3.9 NNW 24 35 13 19 1010.4 1010.5 0.0
30/05:30pm 15.7 9.9 8.0 60 3.9 NNW 28 37 15 20 1010.6 - 0.0
30/05:00pm 15.8 9.4 8.4 61 3.8 NNW 32 43 17 23 1010.8 1010.9 0.0
30/04:30pm 15.9 10.7 8.9 63 3.6 N 26 33 14 18 1010.6 - 0.0
30/04:00pm 15.8 10.3 9.0 64 3.5 NNW 28 37 15 20 1010.7 1010.8 0.0
30/03:30pm 16.0 10.2 9.5 65 3.4 NNW 30 46 16 25 1010.8 - 0.0
30/03:00pm 16.1 10.2 9.2 63 3.6 NNW 30 41 16 22 1010.6 1010.7 0.0
30/02:38pm 16.7 10.2 9.0 60 4.0 NW 33 52 18 28 1010.5 - 0.0
30/02:30pm 17.0 10.6 9.2 60 4.1 NW 33 48 18 26 1010.4 - 0.0
30/02:00pm 17.5 11.3 9.5 59 4.2 NNW 32 52 17 28 1010.3 1010.4 0.0
30/01:43pm 17.7 12.1 10.0 60 4.1 NNW 30 48 16 26 1010.6 - 0.0
30/01:30pm 17.0 10.3 9.6 61 3.9 NNW 35 48 19 26 1010.7 - 0.0
30/01:08pm 17.1 10.3 9.3 60 4.1 NNW 35 54 19 29 1011.1 - 0.0
30/01:00pm 17.5 11.0 9.1 58 4.4 NNW 33 48 18 26 1011.2 1011.4 0.0
30/12:35pm 16.5 11.1 9.4 63 3.7 NNW 28 48 15 26 1011.5 - 0.0
30/12:30pm 16.7 10.9 9.5 62 3.8 N 30 41 16 22 1011.5 - 0.0
30/12:00pm 17.3 11.5 9.5 60 4.1 N 30 39 16 21 1011.8 1012.0 0.0
30/11:30am 16.2 10.7 9.1 63 3.7 NNW 28 39 15 21 1012.8 - 0.0
30/11:00am 16.5 10.8 8.5 59 4.1 NNW 28 39 15 21 1013.0 1013.2 0.0
30/10:30am 16.3 10.8 9.2 63 3.7 NNW 28 35 15 19 1013.3 - 0.0
30/10:00am 15.2 10.9 9.2 67 3.1 NNW 22 30 12 16 1013.4 1013.6 0.0
30/09:30am 14.8 9.8 9.4 70 2.8 N 26 37 14 20 1013.1 - 0.0
30/09:00am 14.5 10.1 9.0 69 2.8 N 22 30 12 16 1013.1 1013.3 0.0

Other Formats:

Comma delimited format used in spreadsheet applications
http://www.bom.gov.au/fwo/IDV60801/IDV60801.94866.axf

JavaScript Object Notation format (JSON) in row-major order
http://www.bom.gov.au/fwo/IDV60801/IDV60801.94866.json